QPF
0.00 0.00 0.00 0.00 0.00 0.00 0.00 0.00 0.00 0.00 0.00 0.03 0.03 0.01 0.00 0.00 0.00 0.00 0.00 0.00 0.00 0.00 0.00 0.00 0.00 0.00 0.00 0.00 0.00 0.00 0.00 0.00 0.00 0.00 0.00 0.00 0.00 0.00 0.00 0.00 0.00 0.00 0.00 0.00
0.00 0.00 0.00 0.00 0.00 0.00 0.00 0.00 0.00 0.00 0.00 0.03 0.01 0.01 0.00 0.00 0.00 0.00 0.00 0.00 0.00 0.00 0.00 0.00 0.00 0.00 0.00 0.00 0.00 0.00 0.00 0.00 0.00 0.00 0.00 0.00 0.00 0.00 0.00 0.00 0.00 0.00 0.00 0.00
0.00 0.00 0.00 0.00 0.00 0.00 0.00 0.00 0.00 0.00 0.00 0.00 0.01 0.01 0.00 0.00 0.00 0.00 0.00 0.00 0.00 0.00 0.00 0.00 0.00 0.00 0.00 0.00 0.00 0.00 0.00 0.00 0.00 0.00 0.00 0.00 0.00 0.00 0.00 0.00 0.00 0.00 0.00 0.00
0.00 0.00 0.00 0.00 0.00 0.00 0.00 0.00 0.00 0.00 0.00 0.00 0.01 0.02 0.00 0.00 0.00 0.00 0.00 0.00 0.00 0.00 0.00 0.01 0.00 0.00 0.00 0.00 0.00 0.00 0.00 0.00 0.00 0.00 0.00 0.00 0.03 0.01 0.00 0.00 0.00 0.00 0.00 0.00
0.00 0.00 0.00 0.00 0.00 0.00 0.00 0.00 0.00 0.00 0.00 0.00 0.00 0.00 0.00 0.00 0.00 0.00 0.00 0.00 0.00 0.00 0.00 0.00 0.00 0.00 0.00 0.00 0.00 0.00 0.00 0.00 0.00 0.00 0.00 0.00 0.00 0.00 0.00 0.00 0.00 0.00 0.00 0.00
0.00 0.00 0.00 0.00 0.00 0.00 0.00 0.00 0.00 0.00 0.00 0.00 0.00 0.00 0.00 0.00 0.00 0.00 0.00 0.00 0.00 0.00 0.00 0.00 0.00 0.00 0.00 0.00 0.00 0.00 0.00 0.00 0.00 0.00 0.00 0.00 0.01 0.07 0.01 0.01 0.00 0.00 0.00 0.00
0.00 0.00 0.00 0.00 0.00 0.00 0.00 0.00 0.00 0.00 0.00 0.00 0.00 0.00 0.00 0.00 0.00 0.00 0.00 0.00 0.00 0.00 0.00 0.00 0.00 0.00 0.00 0.00 0.00 0.00 0.00 0.00 0.00 0.00 0.00 0.00 0.01 0.04 0.13 0.11 0.01 0.00 0.00 0.00
0.00 0.00 0.00 0.00 0.00 0.00 0.00 0.00 0.00 0.00 0.00 0.00 0.00 0.00 0.00 0.00 0.00 0.00 0.00 0.00 0.00 0.00 0.00 0.00 0.00 0.00 0.00 0.00 0.00 0.00 0.00 0.00 0.00 0.00 0.00 0.00 0.00 0.00 0.01 0.01 0.01 0.00 0.00 0.00
0.00 0.00 0.00 0.00 0.00 0.00 0.00 0.00 0.00 0.00 0.00 0.00 0.00 0.00 0.00 0.00 0.00 0.00 0.00 0.00 0.00 0.00 0.00 0.00 0.00 0.00 0.00 0.00 0.00 0.00 0.00 0.00 0.00 0.00 0.00 0.00 0.00 0.00 0.00 0.00 0.01 0.00 0.00 0.00
0.00 0.00 0.00 0.00 0.00 0.00 0.00 0.00 0.00 0.00 0.00 0.00 0.00 0.00 0.00 0.00 0.00 0.00 0.00 0.00 0.00 0.00 0.00 0.00 0.00 0.00 0.00 0.00 0.00 0.00 0.00 0.00 0.00 0.00 0.00 0.00 0.00 0.00 0.00 0.00 0.01 0.00 0.00 0.00
0.00 0.00 0.00 0.00 0.00 0.00 0.00 0.00 0.00 0.00 0.00 0.00 0.00 0.00 0.00 0.00 0.00 0.00 0.00 0.00 0.00 0.00 0.00 0.00 0.00 0.00 0.00 0.00 0.00 0.00 0.00 0.00 0.00 0.00 0.00 0.00 0.00 0.00 0.00 0.00 0.00 0.00 0.02 0.05
0.00 0.00 0.00 0.00 0.00 0.00 0.00 0.00 0.00 0.00 0.00 0.00 0.00 0.00 0.00 0.00 0.00 0.00 0.00 0.00 0.00 0.00 0.00 0.00 0.00 0.00 0.00 0.00 0.00 0.00 0.00 0.00 0.00 0.00 0.00 0.00 0.00 0.00 0.00 0.00 0.00 0.00 0.01 0.08
0.00 0.00 0.00 0.00 0.00 0.00 0.00 0.00 0.00 0.00 0.00 0.00 0.00 0.00 0.00 0.00 0.00 0.00 0.00 0.00 0.00 0.00 0.00 0.00 0.00 0.00 0.00 0.00 0.00 0.00 0.00 0.00 0.00 0.00 0.00 0.00 0.00 0.00 0.00 0.00 0.00 0.00 0.00 0.05
0.00 0.00 0.00 0.00 0.00 0.00 0.00 0.00 0.00 0.00 0.00 0.00 0.00 0.00 0.00 0.00 0.00 0.00 0.00 0.00 0.00 0.00 0.00 0.00 0.00 0.00 0.00 0.00 0.00 0.00 0.00 0.00 0.00 0.00 0.00 0.00 0.00 0.00 0.00 0.00 0.00 0.00 0.00 0.01
0.00 0.00 0.00 0.00 0.00 0.00 0.00 0.00 0.00 0.00 0.00 0.00 0.00 0.00 0.00 0.00 0.00 0.00 0.00 0.00 0.00 0.00 0.00 0.00 0.02 0.03 0.02 0.03 0.02 0.04 0.04 0.16 0.16 0.09 0.00 0.00 0.00 0.00 0.00 0.00 0.00 0.00 0.00 0.00
0.00 0.00 0.00 0.00 0.00 0.00 0.00 0.00 0.00 0.00 0.00 0.00 0.00 0.00 0.00 0.00 0.00 0.00 0.00 0.00 0.00 0.00 0.00 0.00 0.00 0.04 0.05 0.08 0.08 0.04 0.02 0.00 0.00 0.02 0.01 0.00 0.01 0.01 0.00 0.00 0.00 0.00 0.00 0.00
0.00 0.00 0.00 0.00 0.00 0.00 0.00 0.00 0.00 0.00 0.00 0.00 0.00 0.00 0.00 0.00 0.00 0.00 0.00 0.00 0.00 0.00 0.00 0.00 0.00 0.00 0.02 0.05 0.07 0.06 0.05 0.02 0.00 0.00 0.00 0.00 0.00 0.00 0.00 0.00 0.00 0.00 0.00 0.00
0.00 0.00 0.00 0.00 0.00 0.00 0.00 0.00 0.00 0.00 0.00 0.00 0.00 0.00 0.00 0.00 0.00 0.00 0.00 0.00 0.00 0.00 0.00 0.00 0.00 0.00 0.00 0.01 0.01 0.01 0.04 0.08 0.01 0.00 0.00 0.00 0.00 0.00 0.01 0.02 0.01 0.01 0.01 0.00
0.00 0.00 0.00 0.00 0.00 0.00 0.00 0.00 0.00 0.00 0.00 0.00 0.00 0.00 0.00 0.00 0.00 0.00 0.00 0.00 0.00 0.00 0.00 0.00 0.00 0.00 0.00 0.00 0.00 0.01 0.01 0.02 0.02 0.01 0.01 0.01 0.01 0.01 0.01 0.02 0.03 0.04 0.03 0.02
0.00 0.00 0.00 0.00 0.00 0.00 0.00 0.00 0.00 0.00 0.00 0.00 0.00 0.00 0.00 0.00 0.00 0.00 0.00 0.00 0.00 0.00 0.00 0.00 0.00 0.00 0.00 0.00 0.00 0.00 0.00 0.01 0.02 0.01 0.01 0.01 0.01 0.01 0.03 0.03 0.01 0.02 0.06 0.05
0.00 0.00 0.00 0.00 0.00 0.00 0.00 0.00 0.00 0.00 0.00 0.00 0.00 0.00 0.00 0.00 0.00 0.00 0.00 0.00 0.00 0.00 0.00 0.00 0.00 0.00 0.00 0.00 0.00 0.00 0.00 0.01 0.01 0.01 0.01 0.01 0.01 0.01 0.07 0.14 0.09 0.04 0.07 0.13
0.00 0.00 0.00 0.00 0.00 0.00 0.00 0.00 0.00 0.00 0.00 0.00 0.00 0.00 0.00 0.00 0.00 0.00 0.00 0.00 0.00 0.00 0.00 0.00 0.00 0.00 0.00 0.00 0.00 0.01 0.01 0.01 0.01 0.02 0.02 0.01 0.03 0.00 0.01 0.03 0.08 0.04 0.04 0.10
0.00 0.00 0.00 0.00 0.00 0.00 0.00 0.00 0.00 0.00 0.00 0.00 0.00 0.00 0.00 0.00 0.00 0.00 0.00 0.00 0.00 0.00 0.00 0.00 0.00 0.00 0.00 0.00 0.00 0.01 0.00 0.00 0.00 0.00 0.00 0.00 0.01 0.01 0.02 0.02 0.03 0.03 0.02 0.01
0.00 0.00 0.00 0.00 0.00 0.00 0.00 0.00 0.00 0.00 0.00 0.00 0.00 0.00 0.00 0.00 0.00 0.00 0.00 0.00 0.00 0.00 0.00 0.00 0.00 0.00 0.00 0.00 0.00 0.00 0.00 0.00 0.00 0.00 0.00 0.00 0.00 0.01 0.00 0.00 0.00 0.00 0.00 0.00
0.00 0.00 0.00 0.00 0.00 0.00 0.00 0.00 0.00 0.00 0.00 0.00 0.00 0.00 0.00 0.00 0.00 0.00 0.00 0.00 0.00 0.00 0.00 0.00 0.00 0.00 0.00 0.00 0.00 0.00 0.00 0.00 0.00 0.05 0.01 0.00 0.00 0.00 0.00 0.00 0.00 0.00 0.00 0.00
0.00 0.00 0.00 0.00 0.00 0.00 0.00 0.00 0.00 0.00 0.00 0.00 0.00 0.00 0.00 0.00 0.00 0.00 0.00 0.00 0.00 0.00 0.00 0.00 0.00 0.00 0.00 0.00 0.00 0.00 0.00 0.00 0.00 0.01 0.00 0.00 0.00 0.00 0.00 0.00 0.00 0.00 0.00 0.00
MSLP
1007.02 1006.08 1005.14 1004.64 1004.77 1005.32 1005.96 1005.92 1006.28 1007.01 1007.81 1008.41 1008.66 1009.01 1009.96 1010.96 1011.02 1011.30 1010.83 1010.29 1010.55 1010.85 1011.12 1011.91 1012.74 1013.35 1014.07 1015.00 1015.60 1016.37 1016.83 1017.26 1017.64 1017.80 1017.75 1017.75 1017.71 1017.87 1018.04 1018.05 1018.69 1018.98 1018.98 1019.17
1006.74 1005.59 1004.86 1005.37 1005.38 1005.55 1005.35 1005.53 1005.91 1006.87 1007.51 1007.95 1007.86 1008.05 1008.59 1009.49 1010.18 1010.42 1010.63 1010.71 1010.69 1010.67 1010.83 1011.51 1012.13 1012.80 1013.50 1014.36 1015.25 1016.03 1016.56 1017.22 1017.52 1017.55 1017.67 1017.64 1017.67 1017.58 1017.68 1017.98 1018.48 1018.80 1018.91 1019.10
1005.38 1004.91 1005.46 1005.76 1005.49 1005.34 1005.02 1005.01 1005.55 1006.11 1006.88 1007.23 1007.15 1006.90 1007.53 1008.25 1008.93 1009.42 1009.65 1010.17 1010.42 1010.85 1011.03 1011.14 1011.88 1012.24 1012.93 1013.75 1014.77 1015.55 1016.28 1016.81 1017.22 1017.24 1017.70 1018.02 1018.08 1018.07 1018.02 1018.04 1018.22 1018.45 1018.75 1018.87
1005.42 1005.10 1005.67 1005.47 1005.09 1005.03 1004.07 1004.50 1005.34 1006.02 1005.88 1005.09 1006.01 1005.60 1006.15 1006.89 1007.91 1008.52 1008.71 1009.05 1009.48 1010.33 1011.09 1011.78 1011.24 1011.96 1012.23 1013.08 1014.07 1015.08 1015.94 1016.50 1016.98 1017.25 1017.25 1017.52 1017.44 1017.28 1017.28 1017.56 1017.72 1018.00 1018.65 1018.73
1004.39 1004.86 1005.10 1004.87 1004.46 1004.56 1004.31 1004.76 1005.03 1005.31 1005.04 1004.91 1005.00 1004.54 1005.28 1006.14 1006.34 1007.02 1007.67 1007.88 1008.42 1008.98 1009.84 1010.97 1011.15 1011.10 1011.70 1012.58 1013.37 1014.41 1015.43 1016.13 1016.42 1016.85 1017.03 1017.38 1017.41 1017.15 1017.07 1017.23 1017.59 1018.13 1018.41 1018.64
1004.46 1004.84 1004.56 1003.98 1003.99 1004.18 1004.36 1004.76 1004.93 1004.96 1004.12 1003.82 1004.09 1004.02 1004.12 1004.73 1005.37 1006.09 1006.80 1007.32 1007.88 1008.37 1009.31 1010.05 1010.69 1011.14 1011.45 1012.04 1012.87 1013.65 1014.79 1015.63 1016.16 1016.56 1017.00 1017.18 1017.08 1017.19 1016.77 1017.04 1017.34 1017.66 1017.90 1018.17
1003.73 1003.87 1003.86 1003.97 1003.62 1004.03 1004.28 1003.81 1003.37 1003.44 1003.05 1002.97 1004.08 1004.08 1003.43 1004.68 1005.44 1006.02 1006.71 1007.43 1008.07 1008.37 1008.67 1009.23 1009.70 1010.33 1010.76 1011.44 1012.23 1013.05 1014.18 1014.92 1015.48 1016.06 1016.41 1016.83 1017.17 1017.51 1017.33 1017.65 1017.29 1017.01 1017.20 1017.45
1002.33 1002.56 1002.97 1003.24 1002.57 1002.76 1003.21 1002.60 1001.94 1002.32 1002.29 1002.43 1003.98 1003.66 1003.39 1004.55 1005.67 1006.40 1007.03 1007.65 1008.14 1008.32 1008.40 1008.76 1009.51 1009.96 1010.43 1010.94 1011.73 1012.37 1013.37 1014.17 1014.78 1015.28 1015.83 1016.35 1016.76 1016.86 1017.13 1017.12 1016.66 1016.84 1016.78 1016.98
1001.66 1001.59 1002.48 1002.81 1002.60 1002.32 1002.57 1002.81 1002.09 1002.23 1002.41 1002.80 1002.58 1003.20 1003.80 1004.84 1005.55 1006.19 1006.83 1007.57 1007.84 1008.13 1008.22 1008.32 1008.83 1009.38 1010.08 1010.67 1011.16 1011.80 1012.61 1013.47 1013.99 1014.51 1015.19 1015.77 1016.23 1016.49 1016.35 1016.49 1016.86 1016.83 1016.86 1016.73
1001.58 1001.44 1002.14 1002.82 1003.10 1003.14 1002.51 1002.21 1002.29 1002.26 1002.11 1002.03 1002.21 1003.03 1002.99 1003.92 1004.92 1005.81 1006.61 1007.18 1007.72 1008.27 1008.59 1008.51 1008.68 1009.04 1009.58 1010.64 1010.99 1011.43 1012.06 1012.70 1013.20 1013.82 1014.38 1014.94 1015.42 1015.97 1016.27 1016.52 1017.02 1016.72 1016.63 1017.00
1001.48 1001.47 1002.15 1002.74 1002.24 1001.50 1002.53 1002.19 1002.35 1001.88 1001.97 1001.78 1001.90 1001.82 1002.45 1003.52 1004.54 1005.61 1006.51 1007.39 1007.91 1008.24 1008.53 1008.78 1008.96 1009.09 1009.41 1009.69 1010.83 1011.24 1011.79 1012.02 1012.60 1013.06 1013.61 1014.10 1014.65 1015.19 1015.75 1016.01 1016.36 1016.61 1016.83 1016.95
1001.46 1000.95 1000.95 1001.40 1002.14 1002.37 1001.83 1001.37 1001.63 1001.56 1001.73 1002.27 1002.51 1002.34 1003.64 1004.36 1005.17 1005.96 1006.94 1007.71 1008.24 1008.57 1008.73 1008.88 1009.02 1009.33 1009.50 1009.49 1009.89 1011.08 1011.18 1011.50 1011.94 1012.29 1013.07 1013.65 1014.13 1014.60 1014.93 1015.39 1015.73 1016.19 1016.42 1016.60
1001.30 1001.10 1000.48 1001.19 1002.09 1002.41 1001.78 1001.72 1001.85 1001.61 1001.73 1001.69 1002.11 1002.17 1004.02 1004.90 1005.86 1006.62 1007.20 1007.82 1008.39 1008.74 1008.86 1008.95 1009.35 1009.53 1009.54 1009.48 1009.58 1010.60 1011.02 1011.20 1011.42 1011.95 1012.27 1013.03 1013.54 1013.90 1014.27 1014.66 1015.19 1015.52 1015.93 1016.16
1001.19 1000.31 1000.14 999.62 999.76 1000.09 1001.07 1001.40 1001.76 1001.59 1001.08 1000.93 1001.47 1002.14 1003.64 1004.60 1005.53 1006.42 1007.29 1007.99 1008.46 1008.83 1009.11 1009.28 1009.61 1010.02 1009.73 1009.54 1009.56 1010.06 1010.58 1010.92 1011.39 1011.52 1012.09 1012.43 1013.01 1013.32 1013.61 1014.12 1014.60 1014.93 1015.30 1015.64
1000.95 1000.07 1000.12 1000.01 1000.21 1000.52 1000.59 1000.62 1001.15 1001.39 1001.34 1001.31 1001.40 1002.08 1002.78 1004.02 1004.95 1005.79 1006.88 1007.79 1008.42 1008.75 1009.05 1009.48 1009.99 1010.12 1009.74 1009.71 1009.79 1010.26 1010.62 1010.96 1011.27 1011.84 1012.09 1012.33 1012.75 1013.16 1013.40 1013.72 1014.09 1014.41 1014.72 1014.99
1000.76 1000.09 1000.19 1000.15 1000.61 1000.68 1000.57 1000.71 1000.86 1001.11 1001.20 1001.59 1001.82 1002.35 1002.82 1004.33 1005.00 1005.74 1006.80 1007.66 1008.13 1008.56 1009.09 1009.79 1010.57 1010.55 1010.73 1010.42 1010.48 1010.60 1010.97 1011.26 1011.52 1011.87 1012.02 1012.34 1012.96 1013.11 1013.29 1013.52 1013.73 1013.97 1014.21 1014.53
1000.62 1000.11 1000.43 999.99 1000.47 1000.63 1000.55 1000.39 1000.33 1000.67 1001.14 1001.44 1001.44 1002.00 1003.22 1004.50 1005.09 1005.78 1006.64 1007.39 1007.89 1008.36 1008.97 1009.73 1010.35 1011.09 1011.50 1011.53 1011.60 1011.59 1012.08 1012.18 1012.09 1011.98 1012.27 1012.72 1013.11 1013.33 1013.43 1013.60 1013.63 1013.57 1013.74 1014.03
1000.82 1000.32 1000.40 1000.06 1000.62 1000.22 999.85 1000.38 1000.18 1000.23 1000.57 1001.06 1001.71 1002.67 1003.58 1004.27 1005.08 1005.97 1006.52 1006.99 1007.68 1008.31 1009.02 1009.79 1010.14 1011.19 1012.09 1012.18 1012.16 1012.43 1012.76 1012.85 1012.73 1012.49 1012.71 1013.01 1013.51 1013.66 1013.81 1013.49 1013.51 1013.53 1013.53 1013.51
1001.01 1000.56 1000.16 999.86 1000.15 1000.00 1000.06 1000.56 1000.58 1000.43 1000.43 1000.79 1001.46 1002.67 1003.94 1004.83 1005.66 1006.36 1006.94 1007.37 1007.81 1008.61 1009.57 1010.16 1011.15 1011.49 1011.88 1012.38 1012.32 1012.72 1012.90 1013.18 1013.06 1012.86 1012.97 1013.33 1013.43 1013.88 1013.84 1013.95 1013.87 1013.56 1013.46 1013.55
1000.93 1001.02 1000.33 1000.23 999.83 999.05 999.21 999.59 1000.34 1000.49 1000.15 1000.40 1001.32 1002.38 1003.90 1004.79 1004.90 1005.04 1006.96 1007.60 1008.21 1009.26 1010.41 1010.67 1011.29 1011.57 1011.89 1012.20 1012.86 1012.88 1012.74 1013.02 1013.19 1013.18 1013.33 1013.55 1013.52 1013.75 1013.86 1013.95 1014.13 1014.23 1014.44 1014.31
1000.85 1000.67 1000.06 999.66 999.65 999.21 999.09 999.85 1000.75 1000.58 1000.22 1000.35 1001.34 1002.41 1003.61 1004.25 1004.55 1005.73 1007.15 1007.92 1008.47 1009.47 1010.33 1010.58 1010.96 1011.37 1011.93 1012.23 1012.35 1012.35 1012.39 1012.58 1012.86 1012.98 1012.95 1012.87 1013.41 1013.72 1013.97 1014.23 1014.11 1014.47 1014.61 1014.58
999.67 999.80 999.35 999.47 999.07 998.97 999.64 1000.42 1000.20 999.87 1000.50 1000.83 1001.69 1002.69 1003.68 1004.41 1005.60 1006.62 1007.57 1008.23 1008.93 1009.51 1010.25 1010.51 1010.88 1011.35 1011.91 1012.27 1012.54 1012.73 1012.64 1012.87 1013.07 1013.08 1013.04 1013.21 1013.38 1013.90 1013.99 1013.99 1014.13 1014.43 1014.60 1014.70
999.93 999.28 998.83 998.91 998.80 999.14 999.42 999.49 1000.03 1000.24 1000.76 1001.42 1002.08 1003.03 1003.92 1005.02 1005.83 1006.75 1007.68 1008.43 1009.03 1009.68 1010.20 1010.53 1010.85 1011.47 1012.03 1012.47 1012.66 1012.81 1013.36 1013.29 1013.41 1013.73 1013.98 1014.14 1014.40 1014.62 1014.41 1014.40 1014.53 1014.77 1015.06 1015.26
1000.90 1000.93 999.91 1000.00 999.73 999.63 999.64 1000.22 1000.54 1000.76 1001.09 1001.78 1002.45 1003.29 1004.20 1004.89 1005.88 1006.74 1007.63 1008.41 1009.08 1009.79 1010.36 1010.76 1011.12 1011.48 1011.97 1012.53 1012.75 1013.21 1013.50 1013.51 1013.83 1014.24 1014.56 1014.71 1014.88 1015.01 1015.11 1015.08 1015.03 1015.00 1015.36 1015.72
1001.79 1001.82 1000.60 999.89 1000.11 1000.17 1000.04 1000.36 1000.73 1001.26 1001.67 1002.16 1002.92 1003.67 1004.32 1005.13 1006.01 1006.80 1007.71 1008.47 1009.21 1009.92 1010.55 1011.01 1011.33 1011.75 1012.21 1012.64 1012.77 1013.26 1013.46 1013.78 1014.11 1014.53 1014.75 1014.95 1015.11 1015.26 1015.79 1016.24 1016.16 1015.81 1016.76 1016.88
1002.50 1001.66 1001.31 999.80 999.98 999.23 999.91 1000.46 1000.91 1001.32 1001.86 1002.55 1003.14 1003.96 1004.72 1005.38 1006.20 1007.01 1007.83 1008.69 1009.46 1010.11 1010.63 1011.09 1011.45 1011.80 1012.45 1012.57 1012.78 1013.38 1013.68 1013.86 1014.25 1014.58 1014.77 1014.89 1014.61 1014.90 1015.58 1016.32 1016.74 1017.17 1017.58 1017.46
Thickness
5768 5761 5759 5776 5784 5778 5769 5769 5764 5770 5776 5767 5765 5765 5761 5752 5759 5753 5763 5772 5771 5770 5777 5775 5772 5770 5765 5758 5755 5750 5746 5745 5744 5745 5746 5749 5751 5755 5757 5758 5755 5755 5757 5757
5752 5750 5776 5775 5776 5770 5773 5765 5764 5768 5774 5768 5769 5767 5774 5768 5761 5763 5760 5763 5764 5772 5776 5775 5773 5772 5768 5761 5756 5751 5749 5745 5745 5747 5748 5751 5753 5757 5759 5758 5756 5756 5758 5758
5751 5764 5770 5762 5762 5760 5769 5765 5763 5761 5770 5774 5772 5768 5771 5777 5776 5774 5776 5772 5772 5767 5769 5773 5771 5773 5771 5765 5757 5753 5750 5748 5748 5751 5749 5748 5750 5752 5754 5757 5758 5759 5759 5760
5753 5769 5755 5755 5755 5765 5765 5785 5772 5759 5762 5759 5782 5741 5772 5780 5771 5772 5777 5780 5778 5772 5768 5759 5774 5771 5774 5770 5765 5758 5753 5750 5749 5750 5752 5749 5750 5751 5758 5760 5762 5762 5759 5761
5754 5753 5750 5749 5762 5773 5765 5778 5770 5768 5767 5770 5771 5771 5769 5779 5774 5778 5782 5787 5788 5787 5780 5768 5772 5779 5779 5775 5770 5763 5756 5752 5753 5752 5753 5750 5749 5756 5763 5764 5761 5759 5760 5761
5758 5771 5766 5768 5775 5776 5781 5769 5767 5769 5779 5758 5770 5772 5767 5776 5780 5784 5789 5790 5790 5789 5784 5779 5777 5778 5777 5778 5773 5768 5759 5754 5752 5752 5751 5750 5752 5755 5761 5761 5759 5760 5762 5762
5756 5757 5771 5774 5763 5772 5768 5764 5748 5744 5754 5755 5770 5763 5778 5782 5785 5785 5783 5783 5784 5787 5787 5784 5781 5778 5779 5776 5774 5770 5762 5757 5756 5753 5753 5752 5751 5751 5754 5753 5758 5762 5763 5765
5746 5736 5763 5775 5775 5763 5765 5778 5766 5729 5744 5763 5764 5747 5772 5789 5785 5782 5781 5778 5778 5780 5786 5783 5779 5779 5778 5778 5776 5774 5766 5761 5760 5757 5754 5753 5753 5754 5755 5758 5764 5764 5766 5768
5751 5755 5777 5776 5782 5786 5768 5753 5794 5766 5775 5754 5772 5772 5784 5779 5774 5776 5775 5772 5774 5777 5781 5784 5784 5783 5778 5776 5778 5776 5771 5765 5764 5761 5758 5755 5754 5754 5758 5762 5762 5763 5765 5769
5770 5750 5771 5769 5776 5775 5774 5791 5758 5766 5731 5732 5759 5750 5757 5769 5768 5771 5768 5769 5771 5772 5772 5777 5781 5782 5781 5775 5776 5777 5775 5769 5767 5767 5764 5761 5758 5756 5756 5758 5756 5762 5765 5763
5778 5768 5755 5764 5761 5770 5760 5760 5764 5774 5766 5746 5743 5763 5790 5779 5776 5769 5768 5766 5766 5768 5768 5770 5773 5778 5779 5781 5773 5772 5770 5771 5769 5769 5767 5765 5763 5760 5758 5759 5759 5760 5761 5762
5778 5777 5757 5762 5774 5777 5778 5776 5774 5754 5748 5756 5750 5757 5781 5776 5773 5770 5763 5761 5761 5762 5765 5766 5769 5770 5771 5775 5775 5765 5765 5768 5768 5769 5767 5764 5764 5763 5762 5760 5762 5761 5761 5763
5776 5763 5752 5749 5758 5765 5762 5771 5772 5776 5772 5753 5742 5764 5773 5768 5760 5759 5757 5757 5756 5755 5757 5760 5760 5761 5763 5768 5770 5764 5761 5764 5767 5767 5768 5765 5764 5765 5764 5762 5761 5763 5762 5764
5779 5777 5765 5759 5769 5782 5756 5762 5766 5767 5760 5766 5763 5765 5759 5759 5755 5755 5753 5752 5751 5749 5748 5750 5751 5749 5757 5762 5765 5763 5760 5761 5763 5765 5765 5765 5764 5765 5766 5764 5762 5764 5765 5764
5774 5760 5771 5778 5775 5773 5770 5770 5764 5756 5763 5751 5764 5757 5764 5763 5759 5759 5755 5749 5744 5743 5744 5744 5740 5742 5751 5754 5757 5757 5757 5759 5760 5758 5760 5761 5762 5762 5764 5764 5763 5764 5765 5766
5774 5759 5765 5758 5765 5765 5757 5764 5763 5762 5763 5758 5758 5751 5773 5764 5763 5756 5749 5744 5741 5741 5739 5737 5730 5735 5734 5742 5745 5747 5748 5752 5754 5753 5755 5757 5755 5757 5759 5760 5761 5762 5762 5764
5758 5760 5748 5743 5757 5753 5736 5756 5762 5761 5763 5758 5746 5762 5764 5750 5750 5749 5745 5742 5740 5739 5737 5732 5730 5725 5724 5725 5729 5732 5733 5738 5741 5745 5747 5746 5747 5747 5750 5753 5756 5759 5760 5760
5747 5752 5752 5744 5741 5710 5761 5770 5773 5764 5765 5768 5763 5757 5755 5753 5752 5749 5749 5745 5741 5739 5734 5729 5730 5722 5715 5716 5720 5721 5722 5721 5726 5734 5735 5736 5734 5736 5740 5747 5749 5752 5755 5758
5752 5749 5740 5736 5729 5747 5750 5753 5751 5748 5751 5769 5761 5756 5748 5746 5742 5735 5741 5742 5740 5736 5729 5727 5719 5717 5715 5712 5714 5708 5712 5715 5717 5720 5723 5725 5728 5726 5732 5732 5738 5744 5746 5748
5743 5743 5738 5731 5719 5718 5754 5767 5769 5764 5734 5769 5764 5755 5742 5740 5727 5741 5736 5736 5733 5728 5719 5719 5715 5714 5712 5711 5707 5706 5708 5707 5702 5709 5712 5716 5720 5719 5723 5725 5726 5729 5730 5733
5709 5718 5719 5731 5720 5740 5765 5764 5760 5719 5736 5767 5763 5754 5744 5736 5744 5741 5734 5728 5729 5723 5717 5718 5716 5712 5709 5709 5709 5707 5707 5704 5704 5707 5710 5714 5713 5713 5715 5715 5717 5715 5716 5719
5714 5711 5720 5732 5721 5714 5762 5750 5734 5755 5761 5761 5756 5750 5742 5742 5735 5730 5725 5721 5719 5716 5713 5713 5710 5708 5707 5705 5703 5700 5702 5702 5700 5701 5702 5701 5704 5702 5706 5709 5709 5708 5707 5706
5707 5730 5733 5737 5736 5758 5761 5758 5762 5764 5754 5751 5749 5745 5740 5731 5728 5726 5719 5716 5713 5710 5707 5707 5705 5701 5700 5699 5698 5695 5691 5694 5693 5690 5689 5688 5689 5690 5695 5698 5695 5695 5695 5694
5706 5715 5721 5723 5734 5742 5752 5752 5754 5755 5752 5749 5747 5741 5735 5728 5726 5721 5717 5712 5708 5704 5699 5699 5697 5695 5692 5691 5692 5689 5687 5688 5686 5683 5681 5683 5683 5685 5685 5687 5688 5691 5688 5686
5691 5696 5710 5723 5724 5732 5741 5745 5746 5745 5746 5742 5739 5733 5729 5724 5718 5716 5710 5706 5702 5697 5693 5690 5688 5685 5684 5684 5685 5682 5682 5681 5678 5675 5677 5677 5678 5680 5675 5673 5676 5680 5671 5671
5683 5690 5694 5719 5727 5737 5732 5740 5744 5739 5736 5734 5729 5724 5722 5718 5711 5708 5703 5700 5695 5689 5686 5683 5680 5679 5674 5677 5678 5674 5675 5674 5672 5670 5671 5673 5678 5678 5672 5668 5666 5659 5656 5658